| time (UTC) | temp F | wind direction | speed MPH | gust MPH | rain 1hr in | rain 24hr in | rain mn in | humidity % | barometer mb |
| 20260905232844 | 81 | 36 | 2.0 | 9.0 | 0.00 | 0.00 | 0.00 | 62 | 1007.8 |
| 20260905232345 | 81 | 79 | 3.0 | 9.0 | 0.00 | 0.00 | 0.00 | 61 | 1007.8 |
| 20260905231846 | 81 | 89 | 1.0 | 7.0 | 0.00 | 0.00 | 0.00 | 62 | 1007.8 |
| 20260905231344 | 81 | 52 | 1.0 | 5.0 | 0.00 | 0.00 | 0.00 | 63 | 1007.8 |
| 20260905230844 | 81 | 90 | 1.0 | 6.0 | 0.00 | 0.00 | 0.00 | 62 | 1007.7 |
| 20260905230344 | 81 | 101 | 1.0 | 6.0 | 0.00 | 0.00 | 0.00 | 62 | 1007.7 |
| 20260905225844 | 82 | 96 | 1.0 | 5.0 | 0.00 | 0.00 | 0.00 | 62 | 1007.7 |
| 20260905224839 | 82 | 37 | 1.0 | 5.0 | 0.00 | 0.00 | 0.00 | 62 | 1007.7 |
| 20260905224339 | 82 | 115 | 1.0 | 6.0 | 0.00 | 0.00 | 0.00 | 61 | 1007.6 |
| 20260905223832 | 82 | 68 | 2.0 | 6.0 | 0.00 | 0.00 | 0.00 | 61 | 1007.6 |
| 20260905223329 | 83 | 71 | 2.0 | 6.0 | 0.00 | 0.00 | 0.00 | 60 | 1007.5 |
| 20260905222830 | 83 | 52 | 1.0 | 6.0 | 0.00 | 0.00 | 0.00 | 60 | 1007.6 |
| 20260905222329 | 84 | 32 | 0.0 | 5.0 | 0.00 | 0.00 | 0.00 | 61 | 1007.7 |
| 20260905221828 | 83 | 86 | 1.0 | 7.0 | 0.00 | 0.00 | 0.00 | 60 | 1007.5 |
| 20260905220825 | 83 | 54 | 2.0 | 7.0 | 0.00 | 0.00 | 0.00 | 60 | 1007.4 |
| 20260905215824 | 83 | 99 | 1.0 | 7.0 | 0.00 | 0.00 | 0.00 | 61 | 1007.3 |
| 20260905215324 | 83 | 15 | 2.0 | 7.0 | 0.00 | 0.00 | 0.00 | 61 | 1007.4 |
| 20260905214318 | 83 | 111 | 1.0 | 5.0 | 0.00 | 0.00 | 0.00 | 61 | 1007.2 |
| 20260905213317 | 82 | 112 | 1.0 | 6.0 | 0.00 | 0.00 | 0.00 | 61 | 1007.0 |
| 20260905212815 | 82 | 11 | 1.0 | 6.0 | 0.00 | 0.00 | 0.00 | 61 | 1007.2 |
| 20260905211307 | 83 | 351 | 1.0 | 6.0 | 0.00 | 0.00 | 0.00 | 60 | 1006.9 |
| 20260905210809 | 83 | 97 | 1.0 | 6.0 | 0.00 | 0.00 | 0.00 | 60 | 1006.8 |
| 20260905210305 | 83 | 6 | 1.0 | 3.0 | 0.00 | 0.01 | 0.00 | 60 | 1006.9 |
| 20260905205806 | 83 | 29 | 1.0 | 9.0 | 0.00 | 0.01 | 0.00 | 61 | 1006.9 |
| 20260905205306 | 83 | 79 | 1.0 | 9.0 | 0.00 | 0.01 | 0.00 | 60 | 1006.9 |
| 20260905204806 | 83 | 304 | 2.0 | 9.0 | 0.00 | 0.02 | 0.00 | 61 | 1006.9 |
| 20260905204305 | 83 | 340 | 2.0 | 9.0 | 0.00 | 0.02 | 0.00 | 60 | 1006.9 |
| 20260905203804 | 83 | 108 | 2.0 | 9.0 | 0.00 | 0.02 | 0.00 | 60 | 1006.8 |
| 20260905203303 | 83 | 45 | 2.0 | 9.0 | 0.00 | 0.02 | 0.00 | 60 | 1007.0 |
| 20260905202803 | 83 | 66 | 4.0 | 10.0 | 0.00 | 0.02 | 0.00 | 62 | 1007.0 |
| 20260905202306 | 83 | 58 | 4.0 | 11.0 | 0.00 | 0.02 | 0.00 | 61 | 1007.1 |
| 20260905201803 | 84 | 104 | 3.0 | 11.0 | 0.00 | 0.02 | 0.00 | 62 | 1007.0 |
| 20260905201302 | 84 | 48 | 3.0 | 9.0 | 0.00 | 0.02 | 0.00 | 61 | 1007.0 |
| 20260905200803 | 84 | 32 | 3.0 | 13.0 | 0.00 | 0.02 | 0.00 | 61 | 1007.0 |
| 20260905200303 | 84 | 11 | 4.0 | 13.0 | 0.00 | 0.02 | 0.00 | 62 | 1007.1 |
| 20260905195801 | 84 | 40 | 4.0 | 10.0 | 0.00 | 0.02 | 0.00 | 61 | 1007.2 |
| 20260905194803 | 85 | 47 | 2.0 | 6.0 | 0.00 | 0.02 | 0.00 | 61 | 1007.1 |
| 20260905194300 | 85 | 66 | 2.0 | 8.0 | 0.00 | 0.02 | 0.00 | 59 | 1007.1 |
| 20260905193800 | 85 | 39 | 2.0 | 10.0 | 0.00 | 0.02 | 0.00 | 60 | 1007.2 |
| 20260905193300 | 85 | 32 | 1.0 | 10.0 | 0.00 | 0.02 | 0.00 | 61 | 1007.1 |
| 20260905192800 | 84 | 78 | 2.0 | 9.0 | 0.00 | 0.02 | 0.00 | 62 | 1007.0 |
| 20260905192305 | 83 | 95 | 2.0 | 10.0 | 0.00 | 0.02 | 0.00 | 63 | 1007.1 |
| 20260905191751 | 83 | 38 | 2.0 | 10.0 | 0.00 | 0.02 | 0.00 | 63 | 1007.1 |
| 20260905191243 | 83 | 163 | 3.0 | 9.0 | 0.00 | 0.02 | 0.00 | 64 | 1007.3 |
| 20260905190744 | 83 | 69 | 3.0 | 9.0 | 0.00 | 0.02 | 0.00 | 64 | 1007.3 |
| 20260905190243 | 83 | 75 | 3.0 | 9.0 | 0.00 | 0.02 | 0.00 | 65 | 1007.3 |
| 20260905185745 | 82 | 60 | 4.0 | 11.0 | 0.00 | 0.02 | 0.00 | 65 | 1007.4 |
| 20260905185244 | 83 | 40 | 3.0 | 11.0 | 0.00 | 0.02 | 0.00 | 64 | 1007.4 |
| 20260905184742 | 83 | 347 | 3.0 | 10.0 | 0.00 | 0.02 | 0.00 | 64 | 1007.3 |
| 20260905184243 | 83 | 13 | 3.0 | 10.0 | 0.00 | 0.02 | 0.00 | 63 | 1007.5 |
| 20260905183240 | 83 | 6 | 3.0 | 8.0 | 0.00 | 0.02 | 0.00 | 64 | 1007.7 |
| 20260905182739 | 83 | 105 | 2.0 | 8.0 | 0.00 | 0.02 | 0.00 | 64 | 1007.8 |
| 20260905182240 | 83 | 44 | 1.0 | 6.0 | 0.00 | 0.02 | 0.00 | 64 | 1007.7 |
| 20260905181741 | 83 | 94 | 1.0 | 6.0 | 0.00 | 0.02 | 0.00 | 65 | 1007.7 |
| 20260905181235 | 83 | 59 | 1.0 | 6.0 | 0.00 | 0.02 | 0.00 | 64 | 1007.8 |
| 20260905180736 | 83 | 63 | 1.0 | 5.0 | 0.00 | 0.02 | 0.00 | 66 | 1007.9 |
| 20260905180235 | 83 | 180 | 1.0 | 5.0 | 0.00 | 0.02 | 0.00 | 66 | 1008.0 |
| 20260905175736 | 82 | 87 | 2.0 | 6.0 | 0.00 | 0.02 | 0.00 | 66 | 1008.1 |
| 20260905174736 | 83 | 40 | 1.0 | 5.0 | 0.00 | 0.02 | 0.00 | 65 | 1008.3 |
| 20260905174236 | 84 | 83 | 1.0 | 4.0 | 0.00 | 0.02 | 0.00 | 64 | 1008.3 |
| 20260905173729 | 83 | 82 | 1.0 | 5.0 | 0.00 | 0.02 | 0.00 | 64 | 1008.2 |
| 20260905173227 | 83 | 8 | 1.0 | 5.0 | 0.00 | 0.02 | 0.00 | 64 | 1008.3 |
| 20260905172727 | 83 | 332 | 1.0 | 4.0 | 0.00 | 0.02 | 0.00 | 64 | 1008.4 |
| 20260905172228 | 83 | 321 | 1.0 | 4.0 | 0.00 | 0.02 | 0.00 | 65 | 1008.5 |
| 20260905171729 | 83 | 25 | 1.0 | 4.0 | 0.00 | 0.02 | 0.00 | 66 | 1008.6 |
| 20260905171228 | 83 | 94 | 1.0 | 4.0 | 0.00 | 0.02 | 0.00 | 67 | 1008.6 |
| 20260905170724 | 83 | 120 | 1.0 | 6.0 | 0.00 | 0.02 | 0.00 | 66 | 1008.7 |
| 20260905170224 | 83 | 36 | 0.0 | 6.0 | 0.00 | 0.02 | 0.00 | 66 | 1008.7 |
| 20260905165724 | 83 | 211 | 1.0 | 7.0 | 0.00 | 0.02 | 0.00 | 66 | 1008.8 |
| 20260905165224 | 83 | 219 | 1.0 | 7.0 | 0.00 | 0.02 | 0.00 | 66 | 1008.8 |
| 20260905164221 | 82 | 72 | 2.0 | 8.0 | 0.00 | 0.02 | 0.00 | 66 | 1008.6 |
| 20260905163715 | 82 | 22 | 1.0 | 8.0 | 0.00 | 0.02 | 0.00 | 65 | 1008.7 |
| 20260905163215 | 82 | 337 | 2.0 | 6.0 | 0.00 | 0.02 | 0.00 | 66 | 1008.7 |
| 20260905162714 | 82 | 353 | 2.0 | 7.0 | 0.00 | 0.02 | 0.00 | 67 | 1008.8 |
| 20260905162215 | 81 | 320 | 2.0 | 7.0 | 0.00 | 0.02 | 0.00 | 68 | 1008.9 |
| 20260905161715 | 82 | 342 | 1.0 | 7.0 | 0.00 | 0.02 | 0.00 | 70 | 1008.9 |
| 20260905161214 | 82 | 316 | 1.0 | 5.0 | 0.00 | 0.02 | 0.00 | 70 | 1009.0 |
| 20260905160709 | 81 | 212 | 2.0 | 5.0 | 0.00 | 0.02 | 0.00 | 71 | 1009.1 |
| 20260905160209 | 81 | 352 | 1.0 | 5.0 | 0.00 | 0.02 | 0.00 | 71 | 1009.1 |
| 20260905155708 | 81 | 256 | 1.0 | 3.0 | 0.00 | 0.02 | 0.00 | 70 | 1009.1 |
| 20260905154706 | 80 | 32 | 1.0 | 3.0 | 0.00 | 0.02 | 0.00 | 71 | 1009.1 |
| 20260905154205 | 80 | 34 | 0.0 | 3.0 | 0.00 | 0.02 | 0.00 | 71 | 1009.1 |
| 20260905153702 | 80 | 97 | 1.0 | 3.0 | 0.00 | 0.02 | 0.00 | 71 | 1009.1 |
| 20260905153159 | 80 | 45 | 1.0 | 3.0 | 0.00 | 0.02 | 0.00 | 70 | 1009.2 |
| 20260905152701 | 80 | 309 | 0.0 | 3.0 | 0.00 | 0.02 | 0.00 | 70 | 1009.3 |
| 20260905151658 | 80 | 135 | 0.0 | 3.0 | 0.00 | 0.02 | 0.00 | 70 | 1009.5 |
| 20260905151159 | 81 | 80 | 0.0 | 3.0 | 0.00 | 0.02 | 0.00 | 69 | 1009.5 |
| 20260905150150 | 80 | 99 | 1.0 | 4.0 | 0.00 | 0.02 | 0.00 | 70 | 1009.4 |
| 20260905145649 | 80 | 86 | 1.0 | 4.0 | 0.00 | 0.02 | 0.00 | 70 | 1009.5 |
| 20260905145149 | 80 | 112 | 0.0 | 3.0 | 0.00 | 0.02 | 0.00 | 71 | 1009.4 |
| 20260905144650 | 80 | 18 | 1.0 | 3.0 | 0.00 | 0.02 | 0.00 | 72 | 1009.3 |
| 20260905143649 | 80 | 101 | 1.0 | 4.0 | 0.00 | 0.02 | 0.00 | 71 | 1009.4 |
| 20260905143148 | 80 | 68 | 2.0 | 6.0 | 0.00 | 0.02 | 0.00 | 72 | 1009.3 |
| 20260905142644 | 80 | 86 | 2.0 | 6.0 | 0.00 | 0.02 | 0.00 | 71 | 1009.3 |
| 20260905142144 | 80 | 148 | 2.0 | 6.0 | 0.00 | 0.02 | 0.00 | 72 | 1009.2 |
| 20260905141643 | 80 | 62 | 3.0 | 10.0 | 0.00 | 0.02 | 0.00 | 72 | 1009.0 |
| 20260905141145 | 80 | 98 | 4.0 | 10.0 | 0.00 | 0.02 | 0.00 | 72 | 1009.0 |
| 20260905140645 | 80 | 64 | 4.0 | 10.0 | 0.00 | 0.02 | 0.00 | 71 | 1008.8 |
| 20260905140137 | 80 | 129 | 4.0 | 9.0 | 0.00 | 0.02 | 0.00 | 72 | 1008.8 |
| 20260905135639 | 80 | 108 | 3.0 | 9.0 | 0.00 | 0.02 | 0.00 | 73 | 1008.7 |
| 20260905134136 | 79 | 22 | 4.0 | 9.0 | 0.00 | 0.02 | 0.00 | 75 | 1008.6 |
| 20260905133638 | 79 | 19 | 4.0 | 9.0 | 0.00 | 0.02 | 0.00 | 76 | 1008.7 |
| 20260905133134 | 78 | 15 | 3.0 | 9.0 | 0.00 | 0.02 | 0.00 | 77 | 1008.7 |
| 20260905132633 | 78 | 96 | 2.0 | 6.0 | 0.00 | 0.02 | 0.00 | 79 | 1008.7 |
| 20260905132130 | 78 | 22 | 2.0 | 9.0 | 0.00 | 0.02 | 0.00 | 79 | 1008.8 |
| 20260905131630 | 77 | 93 | 3.0 | 9.0 | 0.00 | 0.02 | 0.00 | 80 | 1008.7 |
| 20260905131131 | 77 | 30 | 3.0 | 9.0 | 0.00 | 0.02 | 0.00 | 81 | 1008.8 |
| 20260905130630 | 77 | 6 | 3.0 | 9.0 | 0.00 | 0.02 | 0.00 | 81 | 1008.8 |
| 20260905130123 | 77 | 45 | 2.0 | 8.0 | 0.00 | 0.02 | 0.00 | 81 | 1008.7 |
| 20260905125624 | 77 | 0 | 3.0 | 8.0 | 0.00 | 0.02 | 0.00 | 81 | 1008.7 |
| 20260905125123 | 77 | 29 | 3.0 | 9.0 | 0.00 | 0.02 | 0.00 | 81 | 1008.6 |
| 20260905124624 | 77 | 22 | 3.0 | 9.0 | 0.00 | 0.02 | 0.00 | 81 | 1008.6 |
| 20260905124122 | 78 | 50 | 2.0 | 8.0 | 0.00 | 0.02 | 0.00 | 81 | 1008.5 |
| 20260905123621 | 78 | 29 | 1.0 | 8.0 | 0.00 | 0.02 | 0.00 | 81 | 1008.6 |
| 20260905123116 | 78 | 95 | 1.0 | 8.0 | 0.00 | 0.02 | 0.00 | 82 | 1008.6 |
| 20260905122614 | 77 | 28 | 0.0 | 4.0 | 0.00 | 0.02 | 0.00 | 82 | 1008.6 |
| 20260905122112 | 77 | 68 | 0.0 | 4.0 | 0.00 | 0.02 | 0.00 | 83 | 1008.5 |
| 20260905121110 | 76 | 58 | 1.0 | 4.0 | 0.00 | 0.02 | 0.00 | 84 | 1008.6 |
| 20260905115605 | 76 | 36 | 0.0 | 3.0 | 0.00 | 0.02 | 0.00 | 85 | 1008.5 |
| 20260905115104 | 76 | 316 | 0.0 | 3.0 | 0.00 | 0.02 | 0.00 | 85 | 1008.5 |
| 20260905114605 | 76 | 320 | 0.0 | 3.0 | 0.00 | 0.02 | 0.00 | 85 | 1008.4 |
| 20260905114104 | 75 | 320 | 0.0 | 3.0 | 0.00 | 0.02 | 0.00 | 86 | 1008.4 |
| 20260905113557 | 75 | 329 | 0.0 | 3.0 | 0.00 | 0.02 | 0.00 | 86 | 1008.3 |
| 20260905113057 | 75 | 242 | 0.0 | 2.0 | 0.00 | 0.02 | 0.00 | 86 | 1008.3 |
| 20260905112052 | 75 | 26 | 0.0 | 3.0 | 0.00 | 0.02 | 0.00 | 86 | 1008.2 |
| 20260905111552 | 75 | 59 | 0.0 | 3.0 | 0.00 | 0.02 | 0.00 | 87 | 1008.1 |
| 20260905111048 | 75 | 60 | 0.0 | 4.0 | 0.00 | 0.02 | 0.00 | 87 | 1007.9 |
| 20260905110547 | 75 | 49 | 0.0 | 4.0 | 0.00 | 0.02 | 0.00 | 87 | 1007.7 |
| 20260905110048 | 75 | 83 | 0.0 | 0.0 | 0.00 | 0.02 | 0.00 | 87 | 1007.7 |
| 20260905105549 | 75 | 51 | 0.0 | 1.0 | 0.00 | 0.02 | 0.00 | 86 | 1007.7 |
| 20260905105046 | 75 | 51 | 0.0 | 1.0 | 0.00 | 0.02 | 0.00 | 86 | 1007.8 |
| 20260905104547 | 75 | 333 | 0.0 | 3.0 | 0.00 | 0.02 | 0.00 | 86 | 1007.8 |
| 20260905102540 | 75 | 345 | 0.0 | 2.0 | 0.00 | 0.02 | 0.00 | 86 | 1007.4 |
| 20260905102040 | 75 | 309 | 0.0 | 2.0 | 0.00 | 0.02 | 0.00 | 86 | 1007.4 |
| 20260905101037 | 75 | 318 | 0.0 | 2.0 | 0.00 | 0.02 | 0.00 | 86 | 1007.6 |
| 20260905100536 | 75 | 201 | 0.0 | 1.0 | 0.00 | 0.02 | 0.00 | 86 | 1007.4 |
| 20260905100034 | 75 | 22 | 0.0 | 3.0 | 0.00 | 0.02 | 0.00 | 86 | 1007.5 |
| 20260905095534 | 75 | 347 | 1.0 | 4.0 | 0.00 | 0.02 | 0.00 | 86 | 1007.5 |
| 20260905095032 | 75 | 44 | 0.0 | 4.0 | 0.00 | 0.02 | 0.00 | 86 | 1007.4 |
| 20260905094532 | 75 | 358 | 0.0 | 3.0 | 0.00 | 0.02 | 0.00 | 85 | 1007.3 |
| 20260905094028 | 75 | 36 | 0.0 | 2.0 | 0.00 | 0.02 | 0.00 | 85 | 1007.4 |
| 20260905093528 | 75 | 58 | 0.0 | 3.0 | 0.00 | 0.02 | 0.00 | 85 | 1007.3 |
| 20260905093026 | 75 | 333 | 0.0 | 3.0 | 0.00 | 0.02 | 0.00 | 85 | 1007.4 |
| 20260905092526 | 75 | 340 | 0.0 | 1.0 | 0.00 | 0.02 | 0.00 | 85 | 1007.4 |
| 20260905092026 | 75 | 306 | 0.0 | 1.0 | 0.00 | 0.02 | 0.00 | 85 | 1007.4 |
| 20260905091527 | 75 | 312 | 0.0 | 1.0 | 0.00 | 0.02 | 0.00 | 85 | 1007.4 |
| 20260905091023 | 76 | 311 | 0.0 | 1.0 | 0.00 | 0.02 | 0.00 | 85 | 1007.4 |
| 20260905090521 | 76 | 6 | 0.0 | 2.0 | 0.00 | 0.02 | 0.00 | 85 | 1007.4 |
| 20260905090019 | 76 | 318 | 0.0 | 2.0 | 0.00 | 0.02 | 0.00 | 84 | 1007.4 |
| 20260905084520 | 76 | 75 | 0.0 | 3.0 | 0.00 | 0.02 | 0.00 | 83 | 1007.3 |
| 20260905084017 | 76 | 73 | 0.0 | 5.0 | 0.00 | 0.02 | 0.00 | 83 | 1007.3 |
| 20260905082516 | 76 | 323 | 1.0 | 3.0 | 0.00 | 0.02 | 0.00 | 83 | 1007.4 |
| 20260905082014 | 76 | 283 | 0.0 | 3.0 | 0.00 | 0.02 | 0.00 | 83 | 1007.4 |
| 20260905081514 | 76 | 8 | 0.0 | 3.0 | 0.00 | 0.02 | 0.00 | 83 | 1007.4 |
| 20260905080509 | 76 | 320 | 0.0 | 1.0 | 0.00 | 0.02 | 0.00 | 83 | 1007.6 |
| 20260905080009 | 76 | 264 | 0.0 | 2.0 | 0.00 | 0.02 | 0.00 | 82 | 1007.7 |
| 20260905075510 | 76 | 316 | 0.0 | 2.0 | 0.00 | 0.02 | 0.00 | 82 | 1007.6 |
| 20260905074509 | 76 | 281 | 0.0 | 3.0 | 0.00 | 0.02 | 0.00 | 82 | 1007.7 |
| 20260905074001 | 77 | 328 | 0.0 | 2.0 | 0.00 | 0.02 | 0.00 | 82 | 1007.7 |
| 20260905073001 | 77 | 277 | 0.0 | 4.0 | 0.00 | 0.02 | 0.00 | 83 | 1007.7 |
| 20260905072502 | 77 | 12 | 1.0 | 4.0 | 0.00 | 0.02 | 0.00 | 83 | 1007.7 |
| 20260905072003 | 77 | 326 | 1.0 | 4.0 | 0.00 | 0.02 | 0.00 | 83 | 1007.7 |
| 20260905071502 | 77 | 59 | 0.0 | 5.0 | 0.00 | 0.02 | 0.00 | 83 | 1007.7 |
| 20260905070956 | 77 | 311 | 0.0 | 5.0 | 0.00 | 0.02 | 0.00 | 83 | 1007.8 |
| 20260905070458 | 77 | 318 | 0.0 | 2.0 | 0.00 | 0.02 | 0.00 | 83 | 1007.8 |
| 20260905065956 | 77 | 327 | 1.0 | 2.0 | 0.00 | 0.02 | 0.00 | 83 | 1007.7 |
| 20260905064956 | 77 | 342 | 0.0 | 4.0 | 0.00 | 0.02 | 0.00 | 83 | 1007.9 |
| 20260905064456 | 77 | 323 | 1.0 | 5.0 | 0.00 | 0.02 | 0.00 | 83 | 1007.9 |
| 20260905063452 | 77 | 8 | 1.0 | 5.0 | 0.00 | 0.02 | 0.00 | 83 | 1008.0 |
| 20260905062951 | 77 | 326 | 1.0 | 5.0 | 0.00 | 0.02 | 0.00 | 83 | 1008.1 |
| 20260905062452 | 77 | 5 | 1.0 | 4.0 | 0.00 | 0.02 | 0.00 | 83 | 1008.3 |
| 20260905061451 | 77 | 338 | 0.0 | 4.0 | 0.00 | 0.02 | 0.00 | 83 | 1008.4 |
| 20260905060947 | 77 | 44 | 1.0 | 4.0 | 0.00 | 0.02 | 0.00 | 83 | 1008.4 |
| 20260905060447 | 77 | 332 | 1.0 | 4.0 | 0.00 | 0.02 | 0.00 | 83 | 1008.5 |
| 20260905055944 | 78 | 352 | 1.0 | 4.0 | 0.00 | 0.02 | 0.00 | 83 | 1008.4 |
| 20260905055444 | 78 | 311 | 2.0 | 8.0 | 0.00 | 0.02 | 0.00 | 82 | 1008.5 |
| 20260905054944 | 78 | 308 | 1.0 | 8.0 | 0.00 | 0.02 | 0.00 | 82 | 1008.6 |
| 20260905053436 | 78 | 283 | 0.0 | 1.0 | 0.00 | 0.02 | 0.00 | 83 | 1008.6 |
| 20260905052934 | 78 | 176 | 0.0 | 4.0 | 0.00 | 0.02 | 0.00 | 82 | 1008.7 |
| 20260905052432 | 78 | 207 | 1.0 | 6.0 | 0.00 | 0.02 | 0.00 | 82 | 1008.7 |
| 20260905051932 | 78 | 262 | 1.0 | 6.0 | 0.00 | 0.02 | 0.00 | 82 | 1008.7 |
| 20260905051428 | 78 | 321 | 1.0 | 4.0 | 0.00 | 0.02 | 0.00 | 83 | 1008.8 |
| 20260905050927 | 78 | 311 | 1.0 | 3.0 | 0.00 | 0.02 | 0.00 | 83 | 1008.9 |
| 20260905050429 | 78 | 333 | 0.0 | 4.0 | 0.00 | 0.02 | 0.00 | 83 | 1008.9 |
| 20260905045426 | 78 | 283 | 1.0 | 4.0 | 0.00 | 0.02 | 0.00 | 83 | 1009.1 |
| 20260905044926 | 78 | 309 | 1.0 | 4.0 | 0.00 | 0.02 | 0.00 | 84 | 1009.1 |
| 20260905044422 | 78 | 296 | 1.0 | 5.0 | 0.00 | 0.02 | 0.00 | 83 | 1009.0 |
| 20260905043924 | 78 | 330 | 1.0 | 5.0 | 0.00 | 0.02 | 0.00 | 84 | 1009.0 |
| 20260905042922 | 78 | 246 | 0.0 | 4.0 | 0.00 | 0.02 | 0.00 | 84 | 1009.1 |
| 20260905042420 | 78 | 278 | 0.0 | 5.0 | 0.00 | 0.02 | 0.00 | 85 | 1009.1 |
| 20260905041417 | 78 | 197 | 1.0 | 4.0 | 0.00 | 0.02 | 0.00 | 86 | 1009.1 |
| 20260905040916 | 77 | 269 | 0.0 | 4.0 | 0.00 | 0.02 | 0.00 | 86 | 1009.2 |
| 20260905040416 | 77 | 249 | 0.0 | 2.0 | 0.00 | 0.02 | 0.00 | 87 | 1009.2 |
| 20260905035915 | 77 | 238 | 0.0 | 2.0 | 0.00 | 0.02 | 0.02 | 87 | 1009.2 |
| 20260905035413 | 77 | 210 | 0.0 | 3.0 | 0.00 | 0.02 | 0.02 | 87 | 1009.3 |
| 20260905034912 | 77 | 238 | 1.0 | 3.0 | 0.00 | 0.02 | 0.02 | 87 | 1009.4 |
| 20260905034412 | 77 | 229 | 0.0 | 3.0 | 0.00 | 0.02 | 0.02 | 87 | 1009.5 |
| 20260905033909 | 77 | 238 | 1.0 | 4.0 | 0.00 | 0.02 | 0.02 | 88 | 1009.5 |
| 20260905033408 | 77 | 236 | 1.0 | 4.0 | 0.00 | 0.02 | 0.02 | 88 | 1009.3 |
| 20260905032906 | 77 | 281 | 1.0 | 4.0 | 0.00 | 0.02 | 0.02 | 88 | 1009.4 |
| 20260905032408 | 77 | 215 | 1.0 | 4.0 | 0.00 | 0.02 | 0.02 | 89 | 1009.4 |
| 20260905031907 | 77 | 250 | 1.0 | 3.0 | 0.00 | 0.02 | 0.02 | 89 | 1009.4 |
| 20260905031402 | 77 | 215 | 1.0 | 4.0 | 0.00 | 0.02 | 0.02 | 88 | 1009.5 |
| 20260905030859 | 77 | 195 | 1.0 | 5.0 | 0.00 | 0.02 | 0.02 | 88 | 1009.4 |
| 20260905030356 | 77 | 212 | 2.0 | 5.0 | 0.00 | 0.02 | 0.02 | 88 | 1009.3 |
| 20260905025855 | 77 | 211 | 2.0 | 6.0 | 0.00 | 0.02 | 0.02 | 88 | 1009.4 |
| 20260905025356 | 77 | 210 | 2.0 | 6.0 | 0.00 | 0.02 | 0.02 | 88 | 1009.5 |
| 20260905024849 | 78 | 235 | 3.0 | 7.0 | 0.00 | 0.02 | 0.02 | 88 | 1009.5 |
| 20260905024349 | 78 | 249 | 2.0 | 7.0 | 0.00 | 0.02 | 0.02 | 87 | 1009.5 |
| 20260905023850 | 78 | 226 | 2.0 | 5.0 | 0.00 | 0.02 | 0.02 | 88 | 1009.4 |
| 20260905023350 | 78 | 191 | 2.0 | 5.0 | 0.00 | 0.02 | 0.02 | 88 | 1009.5 |
| 20260905022851 | 78 | 212 | 2.0 | 4.0 | 0.00 | 0.02 | 0.02 | 88 | 1009.4 |
| 20260905022351 | 78 | 203 | 2.0 | 4.0 | 0.00 | 0.02 | 0.02 | 88 | 1009.1 |
| 20260905021852 | 78 | 197 | 1.0 | 4.0 | 0.00 | 0.02 | 0.02 | 87 | 1009.1 |
| 20260905021348 | 79 | 214 | 0.0 | 2.0 | 0.00 | 0.02 | 0.02 | 87 | 1009.1 |
| 20260905020846 | 79 | 203 | 1.0 | 3.0 | 0.00 | 0.02 | 0.02 | 87 | 1009.3 |
| 20260905015846 | 79 | 240 | 1.0 | 5.0 | 0.00 | 0.02 | 0.02 | 85 | 1009.2 |
| 20260905015347 | 79 | 232 | 1.0 | 3.0 | 0.00 | 0.02 | 0.02 | 87 | 1009.1 |
| 20260905014844 | 79 | 231 | 1.0 | 3.0 | 0.00 | 0.02 | 0.02 | 88 | 1009.0 |
| 20260905014342 | 79 | 210 | 1.0 | 3.0 | 0.00 | 0.02 | 0.02 | 87 | 1009.1 |
| 20260905013842 | 79 | 193 | 0.0 | 2.0 | 0.00 | 0.02 | 0.02 | 88 | 1009.1 |
| 20260905013343 | 79 | 212 | 0.0 | 2.0 | 0.00 | 0.02 | 0.02 | 88 | 1008.9 |
| 20260905011835 | 79 | 203 | 1.0 | 4.0 | 0.00 | 0.02 | 0.02 | 87 | 1008.7 |
| 20260905011334 | 79 | 226 | 2.0 | 4.0 | 0.00 | 0.02 | 0.02 | 87 | 1008.6 |
| 20260905010835 | 79 | 208 | 2.0 | 4.0 | 0.00 | 0.02 | 0.02 | 87 | 1008.5 |
| 20260905010332 | 79 | 219 | 1.0 | 3.0 | 0.00 | 0.02 | 0.02 | 87 | 1008.4 |
| 20260905005830 | 80 | 184 | 0.0 | 2.0 | 0.00 | 0.02 | 0.02 | 86 | 1008.4 |
| 20260905005330 | 80 | 210 | 0.0 | 1.0 | 0.00 | 0.02 | 0.02 | 86 | 1008.5 |
| 20260905004829 | 80 | 210 | 0.0 | 2.0 | 0.00 | 0.02 | 0.02 | 86 | 1008.4 |
| 20260905004328 | 80 | 211 | 0.0 | 2.0 | 0.00 | 0.02 | 0.02 | 86 | 1008.5 |
| 20260905002823 | 81 | 325 | 1.0 | 3.0 | 0.00 | 0.02 | 0.02 | 83 | 1008.5 |
| 20260905001825 | 81 | 219 | 1.0 | 3.0 | 0.00 | 0.02 | 0.02 | 83 | 1008.4 |
| 20260905001323 | 81 | 242 | 1.0 | 3.0 | 0.00 | 0.02 | 0.02 | 83 | 1008.4 |
| 20260905000821 | 81 | 274 | 1.0 | 3.0 | 0.00 | 0.02 | 0.02 | 84 | 1008.2 |
| 20260905000322 | 81 | 208 | 1.0 | 3.0 | 0.00 | 0.02 | 0.02 | 83 | 1008.2 |
| 20260904235821 | 81 | 208 | 1.0 | 4.0 | 0.00 | 0.02 | 0.02 | 83 | 1008.2 |
| 20260904234822 | 81 | 224 | 1.0 | 4.0 | 0.00 | 0.02 | 0.02 | 84 | 1008.3 |
| 20260904234320 | 81 | 277 | 1.0 | 4.0 | 0.00 | 0.02 | 0.02 | 84 | 1008.5 |
| 20260904233820 | 80 | 249 | 0.0 | 2.0 | 0.00 | 0.02 | 0.02 | 85 | 1008.4 |
| 20260904233318 | 80 | 267 | 0.0 | 0.0 | 0.00 | 0.02 | 0.02 | 86 | 1008.4 |